Location: Devore Heights
(34.2372°N, 117.4156°W)
Time: 01:26:55
(UTC+00:00)

Altair - Pass Details

Date: 22 September 2024
Orbit: 1501 x 1682 km, 47.2° (Epoch: 09 October)

Event Time Altitude Azimuth Distance (km) Brightness Sun altitude
Exits shadow 10:49:56 32° 316° (NW) 2,589 8.5 -34.4°
Maximum altitude 10:53:23 40° 354° (N) 2,314 8.4 -33.7°
Drops below altitude 10° 11:02:46 10° 61° (ENE) 3,947 10.5 -32.0°
Sets 11:06:17 0° 69° (ENE) 4,932 11.3 -31.3°
